TimeMDT,TemperatureF,Dew PointF,Humidity,Sea Level PressureIn,VisibilityMPH,Wind Direction,Wind SpeedMPH,Gust SpeedMPH,PrecipitationIn,Events,Conditions,WindDirDegrees,DateUTC
12:53 AM,42.1,30.0,62,30.14,10.0,North,17.3,28.8,N/A,,Clear,350,2012-10-04 06:53:00
1:53 AM,39.9,28.0,63,30.17,10.0,NNE,9.2,35.7,N/A,,Clear,20,2012-10-04 07:53:00
2:53 AM,37.9,28.0,68,30.19,10.0,NNW,17.3,28.8,N/A,,Clear,340,2012-10-04 08:53:00
3:53 AM,37.0,28.0,70,30.20,10.0,NNW,18.4,24.2,N/A,,Clear,340,2012-10-04 09:53:00
4:53 AM,36.0,28.0,73,30.22,10.0,NNW,15.0,-,N/A,,Clear,340,2012-10-04 10:53:00
5:53 AM,35.1,27.0,72,30.24,10.0,NNW,12.7,-,N/A,,Clear,340,2012-10-04 11:53:00
6:53 AM,33.1,27.0,78,30.28,10.0,NNW,11.5,-,N/A,,Clear,340,2012-10-04 12:53:00
7:53 AM,36.0,28.0,73,30.32,10.0,North,15.0,-,N/A,,Clear,350,2012-10-04 13:53:00
8:53 AM,39.0,28.0,65,30.33,10.0,North,16.1,-,N/A,,Clear,10,2012-10-04 14:53:00
9:53 AM,43.0,28.0,56,30.34,10.0,North,13.8,-,N/A,,Clear,360,2012-10-04 15:53:00
10:53 AM,46.0,27.0,47,30.32,10.0,North,12.7,19.6,N/A,,Clear,360,2012-10-04 16:53:00
11:53 AM,48.9,26.1,41,30.31,10.0,NNE,12.7,17.3,N/A,,Clear,20,2012-10-04 17:53:00
12:53 PM,51.1,26.1,38,30.28,10.0,NNE,11.5,18.4,N/A,,Clear,20,2012-10-04 18:53:00
1:53 PM,53.1,26.1,35,30.25,10.0,NE,9.2,-,N/A,,Clear,40,2012-10-04 19:53:00
2:53 PM,54.0,25.0,33,30.24,10.0,NNE,6.9,16.1,N/A,,Clear,30,2012-10-04 20:53:00
3:53 PM,54.0,26.1,34,30.23,10.0,Variable,4.6,-,N/A,,Clear,0,2012-10-04 21:53:00
4:53 PM,53.1,26.1,35,30.24,10.0,NE,9.2,-,N/A,,Clear,50,2012-10-04 22:53:00
5:53 PM,51.1,26.1,38,30.25,10.0,NE,8.1,-,N/A,,Clear,50,2012-10-04 23:53:00
6:53 PM,46.9,26.1,44,30.28,10.0,ENE,6.9,-,N/A,,Clear,60,2012-10-05 00:53:00
7:53 PM,42.1,25.0,51,30.29,10.0,ENE,6.9,-,N/A,,Clear,70,2012-10-05 01:53:00
8:53 PM,39.9,24.1,53,30.30,10.0,East,8.1,-,N/A,,Clear,80,2012-10-05 02:53:00
9:53 PM,39.0,24.1,55,30.28,10.0,East,9.2,-,N/A,,Clear,90,2012-10-05 03:53:00
10:53 PM,36.0,24.1,62,30.27,10.0,East,9.2,-,N/A,,Clear,100,2012-10-05 04:53:00
11:53 PM,35.1,24.1,64,30.27,10.0,ESE,5.8,-,N/A,,Clear,110,2012-10-05 05:53:00